| time (UTC) | temp F | wind direction | speed knots | gust knots | rain 1hr in | rain 24hr in | rain mn in | humidity % | barometer mb |
| 20260504184331 | 80 | 154 | 0.9 | 4.3 | 0.00 | 0.00 | 0.00 | 32 | 1015.1 |
| 20260504183826 | 79 | 193 | 0.9 | 4.3 | 0.00 | 0.00 | 0.00 | 33 | 1015.2 |
| 20260504183324 | 77 | 315 | 0.9 | 3.5 | 0.00 | 0.00 | 0.00 | 37 | 1015.2 |
| 20260504182822 | 75 | 315 | 3.5 | 7.8 | 0.00 | 0.00 | 0.00 | 36 | 1015.1 |
| 20260504182319 | 78 | 268 | 5.2 | 5.2 | 0.00 | 0.00 | 0.00 | 34 | 1015.2 |
| 20260504181816 | 80 | 274 | 1.7 | 2.6 | 0.00 | 0.00 | 0.00 | 37 | 1015.1 |
| 20260504181313 | 80 | 128 | 3.5 | 4.3 | 0.00 | 0.00 | 0.00 | 31 | 1015.3 |
| 20260504180812 | 77 | 356 | 2.6 | 4.3 | 0.00 | 0.00 | 0.00 | 35 | 1015.3 |
| 20260504180310 | 76 | 223 | 5.2 | 5.2 | 0.00 | 0.00 | 0.00 | 36 | 1015.0 |
| 20260504175808 | 75 | 296 | 2.6 | 5.2 | 0.00 | 0.00 | 0.00 | 36 | 1015.1 |
| 20260504175304 | 76 | 247 | 3.5 | 4.3 | 0.00 | 0.00 | 0.00 | 36 | 1015.3 |
| 20260504174803 | 76 | 305 | 5.2 | 5.2 | 0.00 | 0.00 | 0.00 | 36 | 1015.4 |
| 20260504174300 | 74 | 278 | 4.3 | 7.8 | 0.00 | 0.00 | 0.00 | 35 | 1015.4 |
| 20260504173756 | 74 | 272 | 1.7 | 6.1 | 0.00 | 0.00 | 0.00 | 39 | 1015.7 |
| 20260504173253 | 73 | 277 | 2.6 | 3.5 | 0.00 | 0.00 | 0.00 | 36 | 1015.5 |
| 20260504172750 | 74 | 294 | 3.5 | 7.0 | 0.00 | 0.00 | 0.00 | 36 | 1015.5 |
| 20260504172247 | 77 | 262 | 4.3 | 4.3 | 0.00 | 0.00 | 0.00 | 34 | 1015.5 |
| 20260504171743 | 75 | 150 | 0.0 | 2.6 | 0.00 | 0.00 | 0.00 | 37 | 1015.7 |
| 20260504171240 | 75 | 314 | 0.9 | 3.5 | 0.00 | 0.00 | 0.00 | 39 | 1015.8 |
| 20260504170737 | 73 | 349 | 0.9 | 7.8 | 0.00 | 0.00 | 0.00 | 36 | 1015.9 |
| 20260504170234 | 74 | 285 | 9.6 | 11.3 | 0.00 | 0.00 | 0.00 | 34 | 1015.9 |
| 20260504160153 | 70 | 277 | 5.2 | 7.8 | 0.00 | 0.00 | 0.00 | 37 | 1017.1 |
| 20260504151120 | 70 | 233 | 1.7 | 2.6 | 0.00 | 0.00 | 0.00 | 42 | 1017.2 |
| 20260504150618 | 69 | 289 | 1.7 | 5.2 | 0.00 | 0.00 | 0.00 | 44 | 1017.2 |
| 20260504150115 | 67 | 224 | 1.7 | 3.5 | 0.00 | 0.00 | 0.00 | 44 | 1017.2 |
| 20260504141043 | 65 | 210 | 1.7 | 2.6 | 0.00 | 0.00 | 0.00 | 47 | 1017.2 |
| 20260504140540 | 65 | 297 | 1.7 | 1.7 | 0.00 | 0.00 | 0.00 | 55 | 1017.2 |
| 20260504130504 | 58 | 264 | 1.7 | 2.6 | 0.00 | 0.00 | 0.00 | 74 | 1017.0 |
| 20260504110351 | 39 | 284 | 0.0 | 1.7 | 0.00 | 0.00 | 0.00 | 99 | 1016.8 |
| 20260504100309 | 39 | 299 | 0.0 | 0.9 | 0.00 | 0.00 | 0.00 | 98 | 1016.7 |
| 20260504081708 | 39 | 328 | 0.9 | 0.9 | 0.00 | 0.00 | 0.00 | 95 | 1016.7 |
| 20260504081204 | 39 | 293 | 0.0 | 0.0 | 0.00 | 0.00 | 0.00 | 94 | 1016.7 |
| 20260504080700 | 40 | 243 | 0.0 | 0.0 | 0.00 | 0.00 | 0.00 | 94 | 1016.6 |
| 20260504080157 | 40 | 266 | 0.9 | 0.9 | 0.00 | 0.00 | 0.00 | 94 | 1016.8 |
| 20260504070125 | 40 | 38 | 0.0 | 0.9 | 0.00 | 0.00 | 0.00 | 92 | 1016.4 |
| 20260504050514 | 41 | 34 | 0.0 | 0.0 | 0.00 | 0.00 | 0.00 | 87 | 1016.9 |
| 20260504050011 | 41 | 34 | 0.0 | 0.0 | 0.00 | 0.00 | 0.00 | 87 | 1016.9 |
| 20260504045507 | 41 | 34 | 0.0 | 0.0 | 0.00 | 0.00 | 0.00 | 86 | 1016.9 |
| 20260504045003 | 41 | 34 | 0.0 | 0.0 | 0.00 | 0.00 | 0.00 | 86 | 1016.9 |
| 20260504044500 | 42 | 34 | 0.0 | 0.9 | 0.00 | 0.00 | 0.00 | 86 | 1016.8 |
| 20260504043957 | 42 | 27 | 0.0 | 0.9 | 0.00 | 0.00 | 0.00 | 86 | 1017.0 |
| 20260504043454 | 42 | 212 | 0.0 | 0.0 | 0.00 | 0.00 | 0.00 | 85 | 1016.8 |
| 20260504042952 | 42 | 218 | 0.0 | 0.9 | 0.00 | 0.00 | 0.00 | 85 | 1016.9 |
| 20260504042448 | 42 | 22 | 0.0 | 0.0 | 0.00 | 0.00 | 0.00 | 84 | 1016.9 |
| 20260504041945 | 42 | 22 | 0.0 | 0.0 | 0.00 | 0.00 | 0.00 | 83 | 1017.1 |
| 20260504041441 | 42 | 32 | 0.0 | 0.9 | 0.00 | 0.00 | 0.00 | 83 | 1017.0 |
| 20260504040937 | 42 | 60 | 0.0 | 1.7 | 0.00 | 0.00 | 0.00 | 83 | 1016.9 |
| 20260504040435 | 42 | 42 | 0.9 | 0.9 | 0.00 | 0.00 | 0.00 | 83 | 1016.8 |
| 20260504035931 | 42 | 44 | 0.0 | 0.0 | 0.00 | 0.00 | 0.00 | 82 | 1017.0 |
| 20260504035428 | 42 | 44 | 0.0 | 0.0 | 0.00 | 0.00 | 0.00 | 82 | 1016.9 |
| 20260504034925 | 43 | 235 | 0.0 | 0.0 | 0.00 | 0.00 | 0.00 | 81 | 1017.1 |
| 20260504034423 | 43 | 44 | 0.0 | 0.0 | 0.00 | 0.00 | 0.00 | 82 | 1017.2 |
| 20260504033919 | 43 | 44 | 0.0 | 0.0 | 0.00 | 0.00 | 0.00 | 81 | 1017.3 |
| 20260504033417 | 43 | 13 | 0.0 | 0.0 | 0.00 | 0.00 | 0.00 | 81 | 1017.1 |
| 20260504032914 | 44 | 44 | 0.0 | 1.7 | 0.00 | 0.00 | 0.00 | 81 | 1017.1 |
| 20260504032411 | 44 | 85 | 0.9 | 1.7 | 0.00 | 0.00 | 0.00 | 80 | 1017.1 |
| 20260504031908 | 44 | 218 | 0.0 | 0.0 | 0.00 | 0.00 | 0.00 | 80 | 1017.2 |
| 20260504031405 | 44 | 329 | 0.0 | 0.0 | 0.00 | 0.00 | 0.00 | 79 | 1017.1 |
| 20260504030901 | 44 | 315 | 0.0 | 0.9 | 0.00 | 0.00 | 0.00 | 79 | 1017.2 |
| 20260504030358 | 44 | 242 | 0.0 | 0.9 | 0.00 | 0.00 | 0.00 | 78 | 1017.1 |
| 20260504025854 | 44 | 326 | 0.0 | 0.0 | 0.00 | 0.00 | 0.00 | 78 | 1017.1 |
| 20260504025351 | 44 | 304 | 0.0 | 0.0 | 0.00 | 0.00 | 0.00 | 78 | 1017.0 |
| 20260504024848 | 44 | 326 | 0.0 | 0.9 | 0.00 | 0.00 | 0.00 | 78 | 1017.0 |
| 20260504024344 | 44 | 302 | 0.0 | 0.9 | 0.00 | 0.00 | 0.00 | 77 | 1016.9 |
| 20260504023842 | 44 | 315 | 0.0 | 0.9 | 0.00 | 0.00 | 0.00 | 77 | 1017.0 |
| 20260504023339 | 44 | 310 | 0.0 | 0.0 | 0.00 | 0.00 | 0.00 | 77 | 1016.8 |
| 20260504022834 | 45 | 295 | 0.9 | 0.9 | 0.00 | 0.00 | 0.00 | 76 | 1016.8 |
| 20260504022331 | 45 | 256 | 0.0 | 0.9 | 0.00 | 0.00 | 0.00 | 76 | 1016.8 |
| 20260504021827 | 45 | 304 | 0.0 | 0.0 | 0.00 | 0.00 | 0.00 | 76 | 1016.6 |
| 20260504021325 | 45 | 315 | 0.0 | 0.0 | 0.00 | 0.00 | 0.00 | 75 | 1016.7 |
| 20260504020822 | 45 | 235 | 0.0 | 0.9 | 0.00 | 0.00 | 0.00 | 75 | 1016.8 |
| 20260504020319 | 46 | 291 | 0.9 | 0.9 | 0.00 | 0.00 | 0.00 | 74 | 1016.6 |
| 20260504015814 | 46 | 293 | 0.0 | 0.0 | 0.00 | 0.00 | 0.00 | 74 | 1016.6 |
| 20260504015311 | 46 | 293 | 0.0 | 0.0 | 0.00 | 0.00 | 0.00 | 74 | 1016.4 |
| 20260504014807 | 46 | 269 | 0.0 | 0.0 | 0.00 | 0.00 | 0.00 | 73 | 1016.5 |
| 20260504014303 | 46 | 302 | 0.9 | 0.9 | 0.00 | 0.00 | 0.00 | 73 | 1016.5 |
| 20260504013801 | 46 | 315 | 0.0 | 0.9 | 0.00 | 0.00 | 0.00 | 72 | 1016.5 |
| 20260504013259 | 47 | 249 | 0.0 | 0.9 | 0.00 | 0.00 | 0.00 | 71 | 1016.3 |
| 20260504012755 | 47 | 246 | 0.0 | 0.9 | 0.00 | 0.00 | 0.00 | 71 | 1016.5 |
| 20260504012253 | 47 | 304 | 0.0 | 0.0 | 0.00 | 0.00 | 0.00 | 70 | 1016.3 |
| 20260504011749 | 48 | 224 | 0.0 | 0.0 | 0.00 | 0.00 | 0.00 | 70 | 1016.4 |
| 20260504011246 | 48 | 301 | 0.9 | 1.7 | 0.00 | 0.00 | 0.00 | 69 | 1016.3 |
| 20260504010742 | 48 | 308 | 0.9 | 0.9 | 0.00 | 0.00 | 0.00 | 69 | 1016.3 |
| 20260504010238 | 49 | 336 | 0.0 | 0.0 | 0.00 | 0.00 | 0.00 | 69 | 1016.1 |
| 20260504005735 | 49 | 282 | 0.0 | 0.9 | 0.00 | 0.00 | 0.00 | 67 | 1016.2 |
| 20260504005232 | 49 | 315 | 0.0 | 0.9 | 0.00 | 0.00 | 0.00 | 67 | 1016.2 |
| 20260504004730 | 50 | 310 | 0.0 | 0.9 | 0.00 | 0.00 | 0.00 | 66 | 1016.2 |
| 20260504004226 | 50 | 291 | 0.0 | 0.9 | 0.00 | 0.00 | 0.00 | 65 | 1016.2 |
| 20260504003723 | 51 | 251 | 0.0 | 1.7 | 0.00 | 0.00 | 0.00 | 64 | 1016.1 |
| 20260504003220 | 51 | 249 | 0.9 | 0.9 | 0.00 | 0.00 | 0.00 | 63 | 1016.2 |
| 20260504002717 | 52 | 251 | 0.0 | 0.9 | 0.00 | 0.00 | 0.00 | 62 | 1015.9 |
| 20260504002214 | 52 | 256 | 0.0 | 0.9 | 0.00 | 0.00 | 0.00 | 61 | 1015.9 |
| 20260504001712 | 53 | 299 | 0.0 | 0.9 | 0.00 | 0.00 | 0.00 | 59 | 1015.9 |
| 20260504001208 | 54 | 252 | 0.9 | 0.9 | 0.00 | 0.00 | 0.00 | 57 | 1015.9 |
| 20260504000705 | 55 | 248 | 0.9 | 1.7 | 0.00 | 0.00 | 0.00 | 54 | 1015.8 |
| 20260504000204 | 55 | 295 | 0.0 | 0.9 | 0.00 | 0.00 | 0.00 | 52 | 1016.1 |
| 20260503235700 | 56 | 256 | 0.0 | 0.0 | 0.00 | 0.00 | 0.00 | 51 | 1015.9 |
| 20260503235157 | 56 | 256 | 0.0 | 0.9 | 0.00 | 0.00 | 0.00 | 50 | 1016.0 |
| 20260503234655 | 57 | 246 | 0.0 | 0.0 | 0.00 | 0.00 | 0.00 | 48 | 1015.8 |
| 20260503234153 | 58 | 255 | 0.0 | 0.9 | 0.00 | 0.00 | 0.00 | 46 | 1015.8 |
| 20260503233649 | 59 | 290 | 0.0 | 0.0 | 0.00 | 0.00 | 0.00 | 45 | 1016.1 |
| 20260503233145 | 61 | 0 | 0.0 | 1.7 | 0.00 | 0.00 | 0.00 | 43 | 1015.9 |
| 20260503232642 | 63 | 130 | 0.9 | 0.9 | 0.00 | 0.00 | 0.00 | 39 | 1015.9 |
| 20260503232139 | 64 | 293 | 0.0 | 0.9 | 0.00 | 0.00 | 0.00 | 38 | 1015.5 |
| 20260503231638 | 66 | 224 | 0.0 | 0.0 | 0.00 | 0.00 | 0.00 | 35 | 1015.9 |
| 20260503231133 | 66 | 249 | 0.0 | 1.7 | 0.00 | 0.00 | 0.00 | 35 | 1015.9 |
| 20260503230630 | 66 | 309 | 0.0 | 1.7 | 0.00 | 0.00 | 0.00 | 36 | 1015.9 |
| 20260503230128 | 67 | 217 | 0.0 | 2.6 | 0.00 | 0.00 | 0.00 | 32 | 1015.9 |
| 20260503225625 | 66 | 326 | 2.6 | 3.5 | 0.00 | 0.00 | 0.00 | 32 | 1015.9 |
| 20260503225124 | 66 | 305 | 1.7 | 4.3 | 0.00 | 0.00 | 0.00 | 32 | 1016.1 |
| 20260503224622 | 68 | 335 | 1.7 | 1.7 | 0.00 | 0.00 | 0.00 | 33 | 1016.1 |
| 20260503224120 | 67 | 301 | 0.9 | 1.7 | 0.00 | 0.00 | 0.00 | 37 | 1016.1 |
| 20260503223618 | 67 | 229 | 0.0 | 3.5 | 0.00 | 0.00 | 0.00 | 31 | 1016.2 |
| 20260503223114 | 68 | 272 | 1.7 | 2.6 | 0.00 | 0.00 | 0.00 | 33 | 1016.0 |
| 20260503222612 | 67 | 256 | 1.7 | 4.3 | 0.00 | 0.00 | 0.00 | 30 | 1016.2 |
| 20260503222109 | 66 | 280 | 1.7 | 4.3 | 0.00 | 0.00 | 0.00 | 28 | 1016.1 |
| 20260503221607 | 68 | 258 | 5.2 | 5.2 | 0.00 | 0.00 | 0.00 | 29 | 1016.3 |
| 20260503221104 | 66 | 233 | 4.3 | 6.1 | 0.00 | 0.00 | 0.00 | 29 | 1016.4 |
| 20260503220600 | 69 | 249 | 3.5 | 3.5 | 0.00 | 0.00 | 0.00 | 29 | 1016.5 |
| 20260503220058 | 67 | 282 | 2.6 | 5.2 | 0.00 | 0.00 | 0.00 | 29 | 1016.5 |
| 20260503215554 | 67 | 268 | 2.6 | 5.2 | 0.00 | 0.00 | 0.00 | 29 | 1016.5 |
| 20260503215051 | 66 | 254 | 3.5 | 5.2 | 0.00 | 0.00 | 0.00 | 32 | 1016.3 |
| 20260503214550 | 68 | 256 | 2.6 | 6.1 | 0.00 | 0.00 | 0.00 | 29 | 1016.6 |
| 20260503214046 | 68 | 62 | 3.5 | 3.5 | 0.00 | 0.00 | 0.00 | 29 | 1016.6 |
| 20260503213544 | 67 | 266 | 1.7 | 3.5 | 0.00 | 0.00 | 0.00 | 32 | 1016.6 |
| 20260503213041 | 66 | 252 | 6.1 | 8.7 | 0.00 | 0.00 | 0.00 | 29 | 1016.7 |
| 20260503212538 | 66 | 220 | 5.2 | 7.8 | 0.00 | 0.00 | 0.00 | 29 | 1016.8 |
| 20260503212036 | 68 | 307 | 7.0 | 7.8 | 0.00 | 0.00 | 0.00 | 28 | 1016.8 |
| 20260503211532 | 67 | 262 | 5.2 | 7.0 | 0.00 | 0.00 | 0.00 | 30 | 1016.7 |
| 20260503211028 | 68 | 273 | 2.6 | 3.5 | 0.00 | 0.00 | 0.00 | 28 | 1016.6 |
| 20260503210525 | 68 | 73 | 2.6 | 5.2 | 0.00 | 0.00 | 0.00 | 28 | 1016.7 |
| 20260503210021 | 66 | 263 | 7.8 | 8.7 | 0.00 | 0.00 | 0.00 | 29 | 1016.7 |
| 20260503205517 | 68 | 267 | 5.2 | 7.8 | 0.00 | 0.00 | 0.00 | 27 | 1016.9 |
| 20260503205014 | 68 | 352 | 1.7 | 7.8 | 0.00 | 0.00 | 0.00 | 26 | 1016.8 |
| 20260503204511 | 69 | 259 | 1.7 | 8.7 | 0.00 | 0.00 | 0.00 | 28 | 1016.8 |
| 20260503204008 | 70 | 276 | 4.3 | 4.3 | 0.00 | 0.00 | 0.00 | 28 | 1016.8 |
| 20260503203505 | 68 | 37 | 1.7 | 2.6 | 0.00 | 0.00 | 0.00 | 27 | 1017.0 |
| 20260503203002 | 66 | 247 | 4.3 | 7.0 | 0.00 | 0.00 | 0.00 | 28 | 1017.0 |
| 20260503202500 | 68 | 290 | 4.3 | 4.3 | 0.00 | 0.00 | 0.00 | 28 | 1017.2 |
| 20260503201958 | 67 | 164 | 0.9 | 3.5 | 0.00 | 0.00 | 0.00 | 29 | 1017.0 |
| 20260503201455 | 65 | 307 | 2.6 | 5.2 | 0.00 | 0.00 | 0.00 | 31 | 1017.3 |
| 20260503200952 | 67 | 278 | 3.5 | 6.1 | 0.00 | 0.00 | 0.00 | 28 | 1017.3 |
| 20260503200449 | 66 | 221 | 2.6 | 5.2 | 0.00 | 0.00 | 0.00 | 29 | 1017.3 |
| 20260503195945 | 67 | 225 | 1.7 | 4.3 | 0.00 | 0.00 | 0.00 | 31 | 1017.4 |
| 20260503195443 | 65 | 259 | 5.2 | 7.8 | 0.00 | 0.00 | 0.00 | 30 | 1017.6 |
| 20260503194939 | 66 | 283 | 4.3 | 8.7 | 0.00 | 0.00 | 0.00 | 30 | 1017.4 |
| 20260503194437 | 66 | 237 | 0.9 | 10.4 | 0.00 | 0.00 | 0.00 | 33 | 1017.6 |
| 20260503193931 | 67 | 103 | 1.7 | 3.5 | 0.00 | 0.00 | 0.00 | 30 | 1017.7 |
| 20260503193427 | 64 | 244 | 5.2 | 6.1 | 0.00 | 0.00 | 0.00 | 27 | 1017.6 |
| 20260503192923 | 66 | 206 | 4.3 | 10.4 | 0.00 | 0.00 | 0.00 | 26 | 1017.7 |
| 20260503192420 | 64 | 239 | 3.5 | 16.5 | 0.00 | 0.00 | 0.00 | 30 | 1017.8 |
| 20260503191915 | 66 | 13 | 1.7 | 5.2 | 0.00 | 0.00 | 0.00 | 28 | 1017.8 |
| 20260503191413 | 63 | 317 | 3.5 | 3.5 | 0.00 | 0.00 | 0.00 | 30 | 1017.8 |
| 20260503190909 | 65 | 258 | 0.9 | 6.1 | 0.00 | 0.00 | 0.00 | 29 | 1018.0 |
| 20260503190407 | 65 | 157 | 0.0 | 5.2 | 0.00 | 0.00 | 0.00 | 28 | 1018.2 |
| 20260503185903 | 62 | 144 | 4.3 | 10.4 | 0.00 | 0.00 | 0.00 | 29 | 1018.3 |
| 20260503185400 | 65 | 235 | 1.7 | 5.2 | 0.00 | 0.00 | 0.00 | 30 | 1018.1 |
| 20260503184859 | 64 | 110 | 1.7 | 6.1 | 0.00 | 0.00 | 0.00 | 29 | 1018.1 |